Home   Weather   Cairo   Past weeks

Flag for Egypt Past Weather in Cairo, Egypt — Yesterday and Last 2 Weeks

82 °F

Scattered clouds.

Feels Like: 84 °F
Forecast: 69 / 87 °F
Wind: 13 mph from Northwest

Location: Cairo Airport

Current Time: Oct 28, 2016 at 5:56:43 PM

Latest Report: Oct 28, 2016 at 5:00 PM

Visibility: N/A

Pressure: 30.01 "Hg

Humidity: 55%

Dew Point: 64 °F

Location of CairoLocation

Past Weather in Cairo — Graph


Cairo Temperature Yesterday

Maximum temperature yesterday: 86 °F (at 1:30 PM)
Minimum temperature yesterday: 70 °F (at 5:00 AM)
Average temperature yesterday: 77 °F

High & Low Weather Summary for the Past Weeks

High93 °F (Oct 13, 4:00 PM)100% (Oct 14, 5:00 AM)30.09 "Hg (Oct 14, 5:00 AM)
Low66 °F (Oct 22, 5:30 AM)33% (Oct 14, 5:00 PM)29.80 "Hg (Oct 26, 2:30 PM)
Average77 °F66%29.97 "Hg
* Reported Oct 13 4:00 PM — Oct 28 4:30 PM, Cairo, Weather by CustomWeather, © 2016

Note: Actual official high and low records may vary slightly from our data, if they occured in-between our weather recording intervals... More about our weather records


Cairo Weather History for the Previous 24 Hours

Scroll right to see more
Time TempWeatherWind HumidityBarometerVisibility
4:30 PM
Fri, Oct 28
84 °FScattered clouds.12 mph51%30.01 "HgN/A
4:00 PM84 °FScattered clouds.12 mph51%30.01 "HgN/A
3:30 PM84 °FScattered clouds.9 mph51%30.01 "HgN/A
3:00 PM84 °FPartly sunny.9 mph51%30.01 "HgN/A
2:30 PM84 °FPartly sunny.8 mph51%30.01 "HgN/A
1:30 PM84 °FPartly sunny.12 mph55%30.01 "HgN/A
1:00 PM84 °FScattered clouds.8 mph55%30.01 "Hg4 mi
12:30 PM82 °FScattered clouds.8 mph58%30.01 "Hg2 mi
12:00 PM82 °FScattered clouds.10 mph62%30.01 "Hg2 mi
11:30 AM81 °FScattered clouds.6 mph66%30.01 "Hg2 mi
11:00 AM79 °FFog.6 mph70%30.04 "Hg2 mi
10:30 AM79 °FFog.9 mph74%30.04 "Hg2 mi
10:00 AM77 °FFog.9 mph79%30.04 "Hg2 mi
9:30 AM77 °FFog.6 mph74%30.04 "Hg1 mi
9:00 AM75 °FFog.5 mph78%30.04 "Hg1 mi
8:30 AM73 °FFog.3 mph83%30.04 "Hg1 mi
8:00 AM73 °FFog.3 mph83%30.01 "Hg1 mi
7:30 AM72 °FFog.3 mph88%30.01 "Hg1 mi
7:00 AM72 °FFog.5 mph83%30.01 "Hg1 mi
6:30 AM72 °FFog.1 mph83%30.01 "Hg1 mi
6:00 AM72 °FFog.No wind83%29.98 "Hg1 mi
5:30 AM72 °FFog.No wind83%29.98 "Hg1 mi
5:00 AM72 °FFog.No wind83%29.98 "Hg1 mi
4:30 AM72 °FFog.7 mph83%29.95 "Hg2 mi
4:00 AM72 °FFog.7 mph83%29.95 "Hg2 mi
3:30 AM72 °FFog.7 mph83%29.95 "Hg2 mi
3:00 AM72 °FFog.7 mph83%29.95 "Hg2 mi
2:30 AM72 °FFog.7 mph83%29.95 "Hg2 mi
1:30 AM73 °FPassing clouds.8 mph78%29.95 "HgN/A
1:00 AM73 °FPassing clouds.5 mph78%29.95 "HgN/A
12:30 AM75 °FPassing clouds.6 mph74%29.98 "HgN/A
12:00 AM75 °FPassing clouds.6 mph74%29.98 "HgN/A
11:30 PM
Thu, Oct 27
75 °FPassing clouds.7 mph74%29.98 "HgN/A
11:00 PM75 °FPassing clouds.7 mph74%29.98 "HgN/A
10:30 PM75 °FPassing clouds.8 mph74%29.98 "HgN/A
10:00 PM77 °FPassing clouds.8 mph69%29.98 "HgN/A
9:30 PM77 °FPassing clouds.8 mph65%29.95 "HgN/A
9:00 PM77 °FPassing clouds.8 mph54%29.95 "HgN/A
8:30 PM77 °FPassing clouds.3 mph54%29.95 "HgN/A
8:00 PM77 °FPassing clouds.3 mph54%29.95 "HgN/A
7:30 PM77 °FPassing clouds.8 mph54%29.95 "HgN/A
7:00 PM79 °FPassing clouds.8 mph54%29.95 "HgN/A
6:30 PM77 °FPassing clouds.8 mph61%29.95 "HgN/A
6:00 PM81 °FPassing clouds.13 mph58%29.92 "HgN/A
5:30 PM81 °FPassing clouds.14 mph58%29.92 "HgN/A
5:00 PM82 °FPartly sunny.20 mph55%29.92 "HgN/A
Weather by CustomWeather, © 2016

See weather overviewHow to use our weather pages